Location: Erlach
(47.0430°N, 7.0996°E)
Time: 20:54:04
(UTC+00:00)

STARLINK-1321 - Visible Passes

Search period start: 25 September 2020 00:00
Search period end: 05 October 2020 00:00
Orbit: 549 x 550 km, 53.0° (Epoch: 25 September)

Date Brightness Start Highest point End Pass type
(mag) Time Alt. Az. Time Alt. Az. Time Alt. Az.
25 Sep 6.5 02:03:47 12° E 02:03:47 12° E 02:04:17 10° E visible
25 Sep 3.6 03:39:27 39° SW 03:40:52 74° SSE 03:45:01 10° ENE visible
26 Sep 6.5 01:58:43 12° E 01:58:43 12° E 01:59:17 10° E visible
26 Sep 3.5 03:34:22 51° WSW 03:35:23 89° NNW 03:39:32 10° ENE visible
27 Sep 6.6 01:53:35 13° E 01:53:35 13° E 01:54:05 10° ENE visible
27 Sep 3.6 03:29:15 59° W 03:29:55 74° NNW 03:34:05 10° ENE visible
28 Sep 6.7 01:48:26 12° ENE 01:48:26 12° ENE 01:48:48 10° ENE visible
28 Sep 3.7 03:24:05 58° NW 03:24:28 62° NNW 03:28:36 10° ENE visible
29 Sep 6.8 01:43:15 11° ENE 01:43:15 11° ENE 01:43:26 10° ENE visible
29 Sep 3.9 03:18:54 52° NNW 03:19:04 53° NNW 03:23:08 10° ENE visible
29 Sep 4.8 04:55:22 10° WNW 04:59:13 35° N 05:03:03 10° ENE visible
30 Sep 4.2 03:13:43 46° NNW 03:13:43 46° NNW 03:17:41 10° ENE visible
30 Sep 4.8 04:50:01 10° WNW 04:53:51 36° N 04:57:43 10° ENE visible
01 Oct 4.5 03:08:31 41° N 03:08:31 41° N 03:12:15 10° ENE visible
01 Oct 4.7 04:44:37 10° WNW 04:48:31 37° N 04:52:24 10° ENE visible
02 Oct 4.7 03:03:19 37° N 03:03:19 37° N 03:06:51 10° ENE visible
02 Oct 4.6 04:39:13 10° WNW 04:43:10 40° NNE 04:47:05 10° E visible
03 Oct 4.9 02:58:09 35° NNE 02:58:09 35° NNE 03:01:28 10° ENE visible
03 Oct 4.5 04:33:48 10° WNW 04:37:48 44° NNE 04:41:47 10° E visible
04 Oct 5.1 02:53:00 33° NNE 02:53:00 33° NNE 02:56:06 10° ENE visible
04 Oct 4.3 04:28:40 12° WNW 04:32:26 50° NNE 04:36:29 10° E visible
